VTBS

Bangkok/Suvarnabhumi International Airport

Airport
ICAO code
VTBS
IATA Code
BKK
Summary
ICAO Region
APAC
ICAO Territory
Location

Bang Phli, Samut Prakan,

Serving
Bangkok
Elevation
5 ft
Coordinates
13° 41' 32" N , 100° 45' 3" E
KCC
Airport LOS
Parallel Runway Operation
Airport WX
Cumulonimbus
Metar
VTBS 152030Z 30004KT 9999 FEW020 30/24 Q1006 NOSIG

Description

International airport serving the city of Bangkok.

Climatology

Tropical Savanna climate (Köppen climate classification Aw)

Airport map

Aerial View

SKYbrary Partners:

Safety knowledge contributed by: